| time (UTC) | temp F | wind direction | speed MPH | gust MPH | rain 1hr in | rain 24hr in | rain mn in | humidity % | barometer mb |
| 20260508044021 | 57 | 309 | 0.0 | 4.0 | 0.00 | 0.00 | 0.00 | 43 | 1015.8 |
| 20260508043521 | 57 | 309 | 0.0 | 4.0 | 0.00 | 0.00 | 0.00 | 44 | 1015.7 |
| 20260508043022 | 57 | 320 | 0.0 | 3.0 | 0.00 | 0.00 | 0.00 | 42 | 1015.6 |
| 20260508042522 | 57 | 319 | 1.0 | 3.0 | 0.00 | 0.00 | 0.00 | 41 | 1015.7 |
| 20260508042020 | 58 | 191 | 0.0 | 9.0 | 0.00 | 0.00 | 0.00 | 40 | 1015.6 |
| 20260508041519 | 58 | 257 | 2.0 | 9.0 | 0.00 | 0.00 | 0.00 | 39 | 1015.6 |
| 20260508041020 | 59 | 260 | 2.0 | 5.0 | 0.00 | 0.00 | 0.00 | 40 | 1015.5 |
| 20260508040519 | 59 | 191 | 0.0 | 7.0 | 0.00 | 0.00 | 0.00 | 38 | 1015.5 |
| 20260508040019 | 59 | 270 | 1.0 | 7.0 | 0.00 | 0.00 | 0.00 | 39 | 1015.5 |
| 20260508035521 | 59 | 269 | 0.0 | 2.0 | 0.00 | 0.00 | 0.00 | 36 | 1015.4 |
| 20260508035019 | 59 | 269 | 0.0 | 5.0 | 0.00 | 0.00 | 0.00 | 35 | 1015.3 |
| 20260508034519 | 60 | 269 | 0.0 | 6.0 | 0.00 | 0.00 | 0.00 | 36 | 1015.3 |
| 20260508034019 | 61 | 191 | 2.0 | 6.0 | 0.00 | 0.00 | 0.00 | 33 | 1015.2 |
| 20260508033519 | 60 | 264 | 2.0 | 7.0 | 0.00 | 0.00 | 0.00 | 33 | 1015.2 |
| 20260508033022 | 60 | 265 | 2.0 | 6.0 | 0.00 | 0.00 | 0.00 | 34 | 1015.2 |
| 20260508032519 | 60 | 191 | 0.0 | 6.0 | 0.00 | 0.00 | 0.00 | 34 | 1015.1 |
| 20260508032019 | 60 | 275 | 0.0 | 6.0 | 0.00 | 0.00 | 0.00 | 32 | 1015.1 |
| 20260508031518 | 60 | 191 | 0.0 | 2.0 | 0.00 | 0.00 | 0.00 | 32 | 1015.0 |
| 20260508031018 | 61 | 191 | 0.0 | 3.0 | 0.00 | 0.00 | 0.00 | 31 | 1014.9 |
| 20260508030518 | 61 | 191 | 0.0 | 3.0 | 0.00 | 0.00 | 0.00 | 28 | 1015.0 |
| 20260508030018 | 62 | 191 | 0.0 | 2.0 | 0.00 | 0.00 | 0.00 | 31 | 1015.0 |
| 20260508025520 | 62 | 191 | 0.0 | 4.0 | 0.00 | 0.00 | 0.00 | 29 | 1015.0 |
| 20260508025017 | 62 | 191 | 0.0 | 10.0 | 0.00 | 0.00 | 0.00 | 29 | 1015.0 |
| 20260508024531 | 63 | 247 | 4.0 | 10.0 | 0.00 | 0.00 | 0.00 | 28 | 1015.0 |
| 20260508024018 | 63 | 300 | 3.0 | 10.0 | 0.00 | 0.00 | 0.00 | 29 | 1015.0 |
| 20260508023518 | 63 | 262 | 1.0 | 10.0 | 0.00 | 0.00 | 0.00 | 28 | 1015.0 |
| 20260508023024 | 64 | 242 | 3.0 | 11.0 | 0.00 | 0.00 | 0.00 | 26 | 1014.9 |
| 20260508022517 | 64 | 250 | 2.0 | 14.0 | 0.00 | 0.00 | 0.00 | 26 | 1014.9 |
| 20260508022017 | 64 | 254 | 5.0 | 14.0 | 0.00 | 0.00 | 0.00 | 26 | 1014.9 |
| 20260508021517 | 65 | 298 | 1.0 | 11.0 | 0.00 | 0.00 | 0.00 | 26 | 1014.8 |
| 20260508021016 | 65 | 271 | 1.0 | 6.0 | 0.00 | 0.00 | 0.00 | 26 | 1014.8 |
| 20260508020516 | 65 | 267 | 0.0 | 11.0 | 0.00 | 0.00 | 0.00 | 26 | 1014.8 |
| 20260508020016 | 65 | 253 | 4.0 | 11.0 | 0.00 | 0.00 | 0.00 | 24 | 1014.8 |
| 20260508015516 | 65 | 243 | 2.0 | 8.0 | 0.00 | 0.00 | 0.00 | 24 | 1014.8 |
| 20260508015016 | 65 | 254 | 2.0 | 10.0 | 0.00 | 0.00 | 0.00 | 21 | 1014.9 |
| 20260508014516 | 66 | 267 | 2.0 | 10.0 | 0.00 | 0.00 | 0.00 | 21 | 1014.9 |
| 20260508014016 | 66 | 251 | 2.0 | 9.0 | 0.00 | 0.00 | 0.00 | 22 | 1014.9 |
| 20260508013519 | 66 | 191 | 4.0 | 9.0 | 0.00 | 0.00 | 0.00 | 23 | 1014.9 |
| 20260508013015 | 67 | 264 | 2.0 | 11.0 | 0.00 | 0.00 | 0.00 | 20 | 1014.9 |
| 20260508012515 | 67 | 250 | 4.0 | 8.0 | 0.00 | 0.00 | 0.00 | 20 | 1014.9 |
| 20260508012016 | 67 | 229 | 2.0 | 9.0 | 0.00 | 0.00 | 0.00 | 20 | 1014.9 |
| 20260508011515 | 67 | 249 | 4.0 | 8.0 | 0.00 | 0.00 | 0.00 | 22 | 1015.0 |
| 20260508011014 | 67 | 265 | 2.0 | 9.0 | 0.00 | 0.00 | 0.00 | 21 | 1015.0 |
| 20260508010514 | 67 | 191 | 4.0 | 9.0 | 0.00 | 0.00 | 0.00 | 20 | 1015.0 |
| 20260508010020 | 68 | 191 | 4.0 | 8.0 | 0.00 | 0.00 | 0.00 | 22 | 1015.0 |
| 20260508005515 | 68 | 266 | 2.0 | 11.0 | 0.00 | 0.00 | 0.00 | 20 | 1015.0 |
| 20260508005017 | 68 | 317 | 3.0 | 11.0 | 0.00 | 0.00 | 0.00 | 23 | 1015.0 |
| 20260508004514 | 68 | 272 | 3.0 | 11.0 | 0.00 | 0.00 | 0.00 | 19 | 1015.0 |
| 20260508004017 | 68 | 271 | 4.0 | 13.0 | 0.00 | 0.00 | 0.00 | 20 | 1014.9 |
| 20260508003513 | 68 | 242 | 5.0 | 15.0 | 0.00 | 0.00 | 0.00 | 20 | 1014.8 |
| 20260508003014 | 68 | 191 | 5.0 | 15.0 | 0.00 | 0.00 | 0.00 | 18 | 1015.0 |
| 20260508002515 | 69 | 266 | 3.0 | 9.0 | 0.00 | 0.00 | 0.00 | 17 | 1014.9 |
| 20260508002013 | 70 | 256 | 2.0 | 13.0 | 0.00 | 0.00 | 0.00 | 19 | 1014.9 |
| 20260508001513 | 70 | 273 | 6.0 | 13.0 | 0.00 | 0.00 | 0.00 | 19 | 1014.9 |
| 20260508001013 | 69 | 191 | 5.0 | 9.0 | 0.00 | 0.00 | 0.00 | 20 | 1015.0 |
| 20260508000511 | 70 | 269 | 2.0 | 10.0 | 0.00 | 0.00 | 0.00 | 23 | 1014.9 |
| 20260508000012 | 71 | 248 | 2.0 | 9.0 | 0.00 | 0.00 | 0.00 | 21 | 1014.9 |
| 20260507235511 | 72 | 248 | 5.0 | 9.0 | 0.00 | 0.00 | 0.00 | 16 | 1014.8 |
| 20260507235011 | 72 | 247 | 3.0 | 11.0 | 0.00 | 0.00 | 0.00 | 19 | 1014.8 |
| 20260507234517 | 72 | 257 | 5.0 | 12.0 | 0.00 | 0.00 | 0.00 | 19 | 1014.8 |
| 20260507234010 | 73 | 244 | 3.0 | 12.0 | 0.00 | 0.00 | 0.00 | 13 | 1014.9 |
| 20260507233510 | 72 | 261 | 3.0 | 13.0 | 0.00 | 0.00 | 0.00 | 17 | 1014.9 |
| 20260507233028 | 71 | 252 | 2.0 | 13.0 | 0.00 | 0.00 | 0.00 | 19 | 1014.9 |
| 20260507232511 | 72 | 244 | 5.0 | 15.0 | 0.00 | 0.00 | 0.00 | 20 | 1014.8 |
| 20260507232010 | 72 | 265 | 8.0 | 15.0 | 0.00 | 0.00 | 0.00 | 20 | 1014.9 |
| 20260507231509 | 72 | 247 | 8.0 | 17.0 | 0.00 | 0.00 | 0.00 | 16 | 1014.9 |
| 20260507231008 | 72 | 230 | 9.0 | 17.0 | 0.00 | 0.00 | 0.00 | 12 | 1015.1 |
| 20260507230508 | 72 | 260 | 7.0 | 15.0 | 0.00 | 0.00 | 0.00 | 18 | 1015.0 |
| 20260507230006 | 72 | 255 | 10.0 | 15.0 | 0.00 | 0.00 | 0.00 | 14 | 1015.1 |
| 20260507225506 | 71 | 255 | 5.0 | 15.0 | 0.00 | 0.00 | 0.00 | 17 | 1015.1 |
| 20260507225006 | 72 | 240 | 6.0 | 16.0 | 0.00 | 0.00 | 0.00 | 17 | 1015.1 |
| 20260507224506 | 71 | 250 | 8.0 | 19.0 | 0.00 | 0.00 | 0.00 | 20 | 1015.2 |
| 20260507224009 | 71 | 246 | 11.0 | 21.0 | 0.00 | 0.00 | 0.00 | 17 | 1015.2 |
| 20260507223505 | 72 | 191 | 12.0 | 21.0 | 0.00 | 0.00 | 0.00 | 15 | 1015.2 |
| 20260507223004 | 71 | 243 | 12.0 | 21.0 | 0.00 | 0.00 | 0.00 | 18 | 1015.2 |
| 20260507222506 | 72 | 271 | 12.0 | 19.0 | 0.00 | 0.00 | 0.00 | 20 | 1015.3 |
| 20260507222003 | 72 | 229 | 11.0 | 19.0 | 0.00 | 0.00 | 0.00 | 19 | 1015.4 |
| 20260507221505 | 71 | 264 | 12.0 | 21.0 | 0.00 | 0.00 | 0.00 | 19 | 1015.4 |
| 20260507221003 | 72 | 244 | 10.0 | 21.0 | 0.00 | 0.00 | 0.00 | 21 | 1015.5 |
| 20260507220501 | 72 | 262 | 11.0 | 21.0 | 0.00 | 0.00 | 0.00 | 24 | 1015.5 |
| 20260507220002 | 72 | 227 | 13.0 | 19.0 | 0.00 | 0.00 | 0.00 | 22 | 1015.5 |
| 20260507215601 | 71 | 247 | 10.0 | 23.0 | 0.00 | 0.00 | 0.00 | 34 | 1015.6 |
| 20260507215059 | 72 | 250 | 11.0 | 23.0 | 0.00 | 0.00 | 0.00 | 31 | 1015.7 |
| 20260507214607 | 72 | 248 | 11.0 | 18.0 | 0.00 | 0.00 | 0.00 | 24 | 1015.7 |
| 20260507214102 | 72 | 260 | 10.0 | 19.0 | 0.00 | 0.00 | 0.00 | 29 | 1015.8 |
| 20260507213559 | 72 | 240 | 10.0 | 19.0 | 0.00 | 0.00 | 0.00 | 30 | 1015.8 |
| 20260507213101 | 71 | 254 | 9.0 | 19.0 | 0.00 | 0.00 | 0.00 | 28 | 1015.9 |
| 20260507212558 | 72 | 191 | 9.0 | 18.0 | 0.00 | 0.00 | 0.00 | 30 | 1015.9 |
| 20260507212102 | 72 | 238 | 10.0 | 18.0 | 0.00 | 0.00 | 0.00 | 27 | 1015.8 |
| 20260507211601 | 71 | 233 | 7.0 | 18.0 | 0.00 | 0.00 | 0.00 | 32 | 1015.9 |
| 20260507211056 | 71 | 292 | 6.0 | 16.0 | 0.00 | 0.00 | 0.00 | 30 | 1016.0 |
| 20260507210556 | 69 | 242 | 6.0 | 17.0 | 0.00 | 0.00 | 0.00 | 29 | 1016.1 |
| 20260507205553 | 70 | 249 | 6.0 | 16.0 | 0.00 | 0.00 | 0.00 | 31 | 1016.2 |
| 20260507205052 | 70 | 191 | 5.0 | 21.0 | 0.00 | 0.00 | 0.00 | 33 | 1016.3 |
| 20260507204552 | 70 | 265 | 6.0 | 14.0 | 0.00 | 0.00 | 0.00 | 35 | 1016.3 |
| 20260507204055 | 70 | 243 | 5.0 | 12.0 | 0.00 | 0.00 | 0.00 | 36 | 1016.3 |
| 20260507203551 | 69 | 258 | 3.0 | 16.0 | 0.00 | 0.00 | 0.00 | 35 | 1016.4 |
| 20260507203103 | 69 | 273 | 7.0 | 17.0 | 0.00 | 0.00 | 0.00 | 35 | 1016.4 |
| 20260507202548 | 69 | 191 | 8.0 | 17.0 | 0.00 | 0.00 | 0.00 | 40 | 1016.5 |
| 20260507202048 | 68 | 257 | 7.0 | 18.0 | 0.00 | 0.00 | 0.00 | 38 | 1016.6 |
| 20260507201556 | 67 | 191 | 9.0 | 19.0 | 0.00 | 0.00 | 0.00 | 38 | 1016.7 |
| 20260507201047 | 67 | 274 | 10.0 | 18.0 | 0.00 | 0.00 | 0.00 | 40 | 1016.8 |
| 20260507200546 | 67 | 263 | 9.0 | 21.0 | 0.00 | 0.00 | 0.00 | 42 | 1016.8 |
| 20260507195545 | 68 | 250 | 11.0 | 17.0 | 0.00 | 0.00 | 0.00 | 43 | 1017.0 |
| 20260507195045 | 68 | 246 | 12.0 | 23.0 | 0.00 | 0.00 | 0.00 | 42 | 1017.0 |
| 20260507194544 | 68 | 237 | 10.0 | 19.0 | 0.00 | 0.00 | 0.00 | 44 | 1017.1 |
| 20260507194042 | 68 | 242 | 11.0 | 21.0 | 0.00 | 0.00 | 0.00 | 45 | 1017.0 |
| 20260507193542 | 67 | 237 | 11.0 | 21.0 | 0.00 | 0.00 | 0.00 | 44 | 1017.0 |
| 20260507193046 | 67 | 257 | 9.0 | 16.0 | 0.00 | 0.00 | 0.00 | 41 | 1017.1 |
| 20260507192540 | 67 | 240 | 11.0 | 20.0 | 0.00 | 0.00 | 0.00 | 43 | 1017.1 |
| 20260507192040 | 67 | 250 | 13.0 | 23.0 | 0.00 | 0.00 | 0.00 | 36 | 1017.2 |
| 20260507191538 | 66 | 246 | 14.0 | 23.0 | 0.00 | 0.00 | 0.00 | 39 | 1017.3 |
| 20260507191037 | 66 | 245 | 13.0 | 24.0 | 0.00 | 0.00 | 0.00 | 36 | 1017.3 |
| 20260507190540 | 66 | 254 | 17.0 | 26.0 | 0.00 | 0.00 | 0.00 | 37 | 1017.2 |
| 20260507190037 | 66 | 262 | 15.0 | 26.0 | 0.00 | 0.00 | 0.00 | 38 | 1017.2 |
| 20260507185539 | 66 | 262 | 14.0 | 23.0 | 0.00 | 0.00 | 0.00 | 37 | 1017.2 |
| 20260507185034 | 65 | 249 | 15.0 | 23.0 | 0.00 | 0.00 | 0.00 | 38 | 1017.3 |
| 20260507184534 | 65 | 236 | 12.0 | 23.0 | 0.00 | 0.00 | 0.00 | 38 | 1017.3 |
| 20260507184035 | 65 | 271 | 13.0 | 23.0 | 0.00 | 0.00 | 0.00 | 41 | 1017.4 |
| 20260507183531 | 64 | 233 | 14.0 | 22.0 | 0.00 | 0.00 | 0.00 | 40 | 1017.3 |
| 20260507183029 | 64 | 260 | 9.0 | 22.0 | 0.00 | 0.00 | 0.00 | 54 | 1017.5 |
| 20260507182528 | 63 | 254 | 15.0 | 25.0 | 0.00 | 0.00 | 0.00 | 44 | 1017.6 |
| 20260507182027 | 63 | 261 | 16.0 | 24.0 | 0.00 | 0.00 | 0.00 | 42 | 1017.6 |
| 20260507181530 | 63 | 277 | 16.0 | 24.0 | 0.00 | 0.00 | 0.00 | 44 | 1017.7 |
| 20260507181025 | 63 | 250 | 14.0 | 25.0 | 0.00 | 0.00 | 0.00 | 44 | 1017.5 |
| 20260507180525 | 63 | 191 | 12.0 | 22.0 | 0.00 | 0.00 | 0.00 | 43 | 1017.7 |
| 20260507180027 | 63 | 230 | 13.0 | 22.0 | 0.00 | 0.00 | 0.00 | 46 | 1017.6 |
| 20260507175523 | 63 | 226 | 14.0 | 19.0 | 0.00 | 0.00 | 0.00 | 49 | 1017.7 |
| 20260507175020 | 63 | 265 | 11.0 | 18.0 | 0.00 | 0.00 | 0.00 | 50 | 1017.8 |
| 20260507174520 | 62 | 269 | 11.0 | 19.0 | 0.00 | 0.00 | 0.00 | 51 | 1017.8 |
| 20260507174017 | 62 | 247 | 10.0 | 22.0 | 0.00 | 0.00 | 0.00 | 53 | 1017.8 |
| 20260507173516 | 61 | 230 | 15.0 | 26.0 | 0.00 | 0.00 | 0.00 | 49 | 1017.8 |
| 20260507173029 | 61 | 235 | 12.0 | 23.0 | 0.00 | 0.00 | 0.00 | 50 | 1017.9 |
| 20260507172515 | 60 | 239 | 14.0 | 23.0 | 0.00 | 0.00 | 0.00 | 52 | 1018.0 |
| 20260507172014 | 61 | 265 | 12.0 | 22.0 | 0.00 | 0.00 | 0.00 | 51 | 1018.0 |
| 20260507171512 | 60 | 237 | 9.0 | 25.0 | 0.00 | 0.00 | 0.00 | 50 | 1018.2 |
| 20260507171012 | 60 | 253 | 11.0 | 25.0 | 0.00 | 0.00 | 0.00 | 50 | 1018.1 |
| 20260507170511 | 60 | 271 | 10.0 | 22.0 | 0.00 | 0.00 | 0.00 | 53 | 1018.2 |
| 20260507170010 | 59 | 233 | 9.0 | 21.0 | 0.00 | 0.00 | 0.00 | 53 | 1018.3 |
| 20260507165510 | 59 | 249 | 10.0 | 23.0 | 0.00 | 0.00 | 0.00 | 56 | 1018.3 |
| 20260507165010 | 59 | 250 | 11.0 | 24.0 | 0.00 | 0.00 | 0.00 | 52 | 1018.3 |
| 20260507164507 | 59 | 252 | 11.0 | 19.0 | 0.00 | 0.00 | 0.00 | 54 | 1018.3 |
| 20260507164005 | 58 | 191 | 10.0 | 25.0 | 0.00 | 0.00 | 0.00 | 56 | 1018.3 |
| 20260507163503 | 58 | 260 | 12.0 | 25.0 | 0.00 | 0.00 | 0.00 | 56 | 1018.3 |
| 20260507163002 | 58 | 277 | 11.0 | 24.0 | 0.00 | 0.00 | 0.00 | 56 | 1018.4 |
| 20260507162502 | 58 | 255 | 9.0 | 19.0 | 0.00 | 0.00 | 0.00 | 58 | 1018.5 |
| 20260507162001 | 57 | 259 | 9.0 | 21.0 | 0.00 | 0.00 | 0.00 | 59 | 1018.5 |
| 20260507161604 | 57 | 255 | 12.0 | 21.0 | 0.00 | 0.00 | 0.00 | 56 | 1018.6 |
| 20260507161100 | 57 | 250 | 10.0 | 17.0 | 0.00 | 0.00 | 0.00 | 59 | 1018.6 |
| 20260507160600 | 57 | 244 | 10.0 | 23.0 | 0.00 | 0.00 | 0.00 | 59 | 1018.7 |
| 20260507160059 | 57 | 191 | 7.0 | 23.0 | 0.00 | 0.00 | 0.00 | 59 | 1018.8 |
| 20260507155558 | 56 | 221 | 8.0 | 22.0 | 0.00 | 0.00 | 0.00 | 59 | 1018.8 |
| 20260507155106 | 56 | 272 | 11.0 | 18.0 | 0.00 | 0.00 | 0.00 | 60 | 1018.7 |
| 20260507154559 | 56 | 273 | 8.0 | 18.0 | 0.00 | 0.00 | 0.00 | 64 | 1018.8 |
| 20260507154059 | 55 | 267 | 11.0 | 18.0 | 0.00 | 0.00 | 0.00 | 65 | 1018.9 |
| 20260507153554 | 55 | 244 | 10.0 | 19.0 | 0.00 | 0.00 | 0.00 | 64 | 1018.9 |
| 20260507153053 | 55 | 273 | 9.0 | 19.0 | 0.00 | 0.00 | 0.00 | 67 | 1019.1 |
| 20260507152553 | 54 | 258 | 10.0 | 23.0 | 0.00 | 0.00 | 0.00 | 66 | 1019.0 |
| 20260507152050 | 54 | 254 | 9.0 | 23.0 | 0.00 | 0.00 | 0.00 | 67 | 1019.0 |
| 20260507151549 | 54 | 244 | 13.0 | 23.0 | 0.00 | 0.00 | 0.00 | 66 | 1019.1 |
| 20260507151047 | 54 | 258 | 12.0 | 23.0 | 0.00 | 0.00 | 0.00 | 67 | 1019.1 |
| 20260507150547 | 54 | 247 | 10.0 | 16.0 | 0.00 | 0.00 | 0.00 | 68 | 1019.1 |
| 20260507150045 | 53 | 267 | 9.0 | 16.0 | 0.00 | 0.00 | 0.00 | 69 | 1019.2 |
| 20260507145544 | 53 | 246 | 6.0 | 16.0 | 0.00 | 0.00 | 0.00 | 69 | 1019.3 |
| 20260507145042 | 53 | 259 | 9.0 | 15.0 | 0.00 | 0.00 | 0.00 | 68 | 1019.2 |
| 20260507144543 | 53 | 243 | 9.0 | 16.0 | 0.00 | 0.00 | 0.00 | 69 | 1019.2 |
| 20260507144040 | 53 | 233 | 10.0 | 15.0 | 0.00 | 0.00 | 0.00 | 69 | 1019.2 |
| 20260507143539 | 52 | 244 | 9.0 | 17.0 | 0.00 | 0.00 | 0.00 | 69 | 1019.2 |
| 20260507143038 | 52 | 224 | 11.0 | 17.0 | 0.00 | 0.00 | 0.00 | 70 | 1019.1 |
| 20260507142538 | 52 | 243 | 9.0 | 16.0 | 0.00 | 0.00 | 0.00 | 70 | 1019.1 |
| 20260507142035 | 52 | 239 | 11.0 | 16.0 | 0.00 | 0.00 | 0.00 | 71 | 1019.1 |
| 20260507141533 | 52 | 235 | 8.0 | 16.0 | 0.00 | 0.00 | 0.00 | 72 | 1019.0 |
| 20260507141035 | 52 | 235 | 10.0 | 15.0 | 0.00 | 0.00 | 0.00 | 72 | 1019.0 |
| 20260507140531 | 52 | 217 | 6.0 | 13.0 | 0.00 | 0.00 | 0.00 | 71 | 1018.9 |
| 20260507140032 | 52 | 214 | 8.0 | 16.0 | 0.00 | 0.00 | 0.00 | 71 | 1018.8 |
| 20260507135528 | 52 | 233 | 9.0 | 16.0 | 0.00 | 0.00 | 0.00 | 71 | 1018.7 |
| 20260507135028 | 52 | 217 | 6.0 | 10.0 | 0.00 | 0.00 | 0.00 | 70 | 1018.8 |
| 20260507134528 | 52 | 162 | 5.0 | 9.0 | 0.00 | 0.00 | 0.00 | 70 | 1018.8 |
| 20260507134027 | 52 | 175 | 3.0 | 9.0 | 0.00 | 0.00 | 0.00 | 68 | 1018.7 |
| 20260507133526 | 52 | 162 | 1.0 | 8.0 | 0.00 | 0.00 | 0.00 | 69 | 1018.7 |
| 20260507133026 | 52 | 241 | 0.0 | 8.0 | 0.00 | 0.00 | 0.00 | 68 | 1018.7 |
| 20260507132526 | 52 | 163 | 0.0 | 4.0 | 0.00 | 0.00 | 0.00 | 69 | 1018.6 |
| 20260507132023 | 51 | 168 | 0.0 | 5.0 | 0.00 | 0.00 | 0.00 | 70 | 1018.7 |
| 20260507131528 | 51 | 196 | 3.0 | 5.0 | 0.00 | 0.00 | 0.00 | 70 | 1018.7 |
| 20260507131023 | 51 | 260 | 0.0 | 5.0 | 0.00 | 0.00 | 0.00 | 70 | 1018.7 |
| 20260507130522 | 51 | 4 | 0.0 | 5.0 | 0.00 | 0.00 | 0.00 | 70 | 1018.7 |
| 20260507130020 | 51 | 38 | 1.0 | 5.0 | 0.00 | 0.00 | 0.00 | 70 | 1018.6 |
| 20260507125520 | 52 | 332 | 0.0 | 6.0 | 0.00 | 0.00 | 0.00 | 70 | 1018.6 |
| 20260507125019 | 51 | 337 | 2.0 | 6.0 | 0.00 | 0.00 | 0.00 | 70 | 1018.5 |
| 20260507124528 | 52 | 21 | 1.0 | 5.0 | 0.00 | 0.00 | 0.00 | 70 | 1018.5 |
| 20260507124019 | 52 | 244 | 0.0 | 7.0 | 0.00 | 0.00 | 0.00 | 71 | 1018.5 |
| 20260507123519 | 52 | 355 | 2.0 | 8.0 | 0.00 | 0.00 | 0.00 | 71 | 1018.5 |
| 20260507123018 | 52 | 300 | 2.0 | 13.0 | 0.00 | 0.00 | 0.00 | 70 | 1018.4 |
| 20260507122521 | 52 | 191 | 1.0 | 9.0 | 0.00 | 0.00 | 0.00 | 71 | 1018.5 |
| 20260507122021 | 52 | 123 | 1.0 | 10.0 | 0.00 | 0.00 | 0.00 | 70 | 1018.4 |
| 20260507121517 | 52 | 191 | 3.0 | 10.0 | 0.00 | 0.00 | 0.00 | 71 | 1018.5 |
| 20260507121017 | 52 | 121 | 2.0 | 9.0 | 0.00 | 0.00 | 0.00 | 71 | 1018.6 |
| 20260507120514 | 52 | 191 | 3.0 | 12.0 | 0.00 | 0.00 | 0.00 | 70 | 1018.5 |
| 20260507120017 | 52 | 254 | 2.0 | 12.0 | 0.00 | 0.00 | 0.00 | 70 | 1018.4 |
| 20260507115514 | 52 | 246 | 2.0 | 7.0 | 0.00 | 0.00 | 0.00 | 69 | 1018.4 |
| 20260507115013 | 52 | 356 | 0.0 | 4.0 | 0.00 | 0.00 | 0.00 | 69 | 1018.3 |
| 20260507114513 | 53 | 2 | 0.0 | 4.0 | 0.00 | 0.00 | 0.00 | 69 | 1018.4 |
| 20260507114012 | 53 | 265 | 0.0 | 10.0 | 0.00 | 0.00 | 0.00 | 70 | 1018.2 |
| 20260507113513 | 53 | 254 | 1.0 | 8.0 | 0.00 | 0.00 | 0.00 | 69 | 1018.4 |
| 20260507113015 | 53 | 271 | 1.0 | 8.0 | 0.00 | 0.00 | 0.00 | 69 | 1018.4 |
| 20260507112514 | 53 | 191 | 3.0 | 8.0 | 0.00 | 0.00 | 0.00 | 69 | 1018.4 |
| 20260507112010 | 53 | 269 | 2.0 | 9.0 | 0.00 | 0.00 | 0.00 | 69 | 1018.3 |
| 20260507111509 | 54 | 250 | 1.0 | 9.0 | 0.00 | 0.00 | 0.00 | 68 | 1018.1 |
| 20260507111008 | 53 | 246 | 0.0 | 8.0 | 0.00 | 0.00 | 0.00 | 68 | 1018.2 |
| 20260507110508 | 53 | 252 | 1.0 | 11.0 | 0.00 | 0.00 | 0.00 | 69 | 1018.2 |
| 20260507110008 | 54 | 261 | 1.0 | 11.0 | 0.00 | 0.00 | 0.00 | 69 | 1018.0 |
| 20260507105505 | 54 | 238 | 1.0 | 9.0 | 0.00 | 0.00 | 0.00 | 68 | 1018.2 |
| 20260507105010 | 54 | 245 | 3.0 | 9.0 | 0.00 | 0.00 | 0.00 | 68 | 1018.1 |
| 20260507104506 | 54 | 246 | 3.0 | 13.0 | 0.00 | 0.00 | 0.00 | 68 | 1018.0 |
| 20260507104005 | 54 | 240 | 4.0 | 13.0 | 0.00 | 0.00 | 0.00 | 68 | 1017.8 |
| 20260507103504 | 54 | 240 | 3.0 | 11.0 | 0.00 | 0.00 | 0.00 | 67 | 1017.9 |
| 20260507103003 | 54 | 215 | 5.0 | 12.0 | 0.00 | 0.00 | 0.00 | 68 | 1017.9 |
| 20260507102502 | 54 | 191 | 2.0 | 11.0 | 0.00 | 0.00 | 0.00 | 67 | 1017.9 |
| 20260507102101 | 55 | 271 | 4.0 | 11.0 | 0.00 | 0.00 | 0.00 | 67 | 1018.0 |
| 20260507101613 | 55 | 257 | 5.0 | 9.0 | 0.00 | 0.00 | 0.00 | 66 | 1018.0 |
| 20260507101100 | 55 | 266 | 3.0 | 9.0 | 0.00 | 0.00 | 0.00 | 66 | 1018.1 |
| 20260507100557 | 55 | 250 | 2.0 | 12.0 | 0.00 | 0.00 | 0.00 | 66 | 1018.0 |
| 20260507095556 | 56 | 241 | 4.0 | 10.0 | 0.00 | 0.00 | 0.00 | 64 | 1017.9 |
| 20260507095056 | 56 | 246 | 1.0 | 12.0 | 0.00 | 0.00 | 0.00 | 64 | 1017.9 |
| 20260507094604 | 56 | 341 | 5.0 | 12.0 | 0.00 | 0.00 | 0.00 | 63 | 1018.0 |
| 20260507094059 | 56 | 237 | 2.0 | 8.0 | 0.00 | 0.00 | 0.00 | 64 | 1017.9 |
| 20260507093554 | 56 | 15 | 3.0 | 11.0 | 0.00 | 0.00 | 0.00 | 64 | 1018.0 |
| 20260507093055 | 56 | 220 | 3.0 | 11.0 | 0.00 | 0.00 | 0.00 | 64 | 1018.1 |
| 20260507092554 | 57 | 217 | 2.0 | 12.0 | 0.00 | 0.00 | 0.00 | 64 | 1018.0 |
| 20260507092058 | 57 | 253 | 5.0 | 12.0 | 0.00 | 0.00 | 0.00 | 64 | 1017.9 |
| 20260507091553 | 57 | 211 | 1.0 | 16.0 | 0.00 | 0.00 | 0.00 | 64 | 1017.9 |
| 20260507091053 | 57 | 237 | 3.0 | 16.0 | 0.00 | 0.00 | 0.00 | 64 | 1017.9 |
| 20260507090553 | 57 | 265 | 5.0 | 10.0 | 0.00 | 0.00 | 0.00 | 64 | 1018.0 |
| 20260507090053 | 57 | 273 | 3.0 | 8.0 | 0.00 | 0.00 | 0.00 | 65 | 1018.0 |
| 20260507085553 | 57 | 264 | 0.0 | 10.0 | 0.00 | 0.00 | 0.00 | 64 | 1018.0 |
| 20260507085053 | 58 | 249 | 4.0 | 10.0 | 0.00 | 0.00 | 0.00 | 64 | 1018.1 |
| 20260507084558 | 58 | 262 | 2.0 | 11.0 | 0.00 | 0.00 | 0.00 | 64 | 1018.1 |
| 20260507084054 | 58 | 237 | 2.0 | 15.0 | 0.00 | 0.00 | 0.00 | 63 | 1018.2 |
| 20260507083551 | 58 | 257 | 7.0 | 13.0 | 0.00 | 0.00 | 0.00 | 65 | 1018.1 |
| 20260507083052 | 58 | 265 | 7.0 | 13.0 | 0.00 | 0.00 | 0.00 | 64 | 1018.0 |
| 20260507082550 | 57 | 223 | 3.0 | 15.0 | 0.00 | 0.00 | 0.00 | 64 | 1018.1 |
| 20260507082049 | 57 | 191 | 6.0 | 16.0 | 0.00 | 0.00 | 0.00 | 65 | 1018.2 |
| 20260507081548 | 57 | 244 | 8.0 | 16.0 | 0.00 | 0.00 | 0.00 | 67 | 1018.1 |
| 20260507081047 | 57 | 237 | 6.0 | 15.0 | 0.00 | 0.00 | 0.00 | 67 | 1018.1 |
| 20260507080547 | 57 | 227 | 6.0 | 12.0 | 0.00 | 0.00 | 0.00 | 67 | 1018.1 |
| 20260507080057 | 57 | 11 | 3.0 | 9.0 | 0.00 | 0.00 | 0.00 | 68 | 1018.3 |
| 20260507075545 | 57 | 223 | 2.0 | 11.0 | 0.00 | 0.00 | 0.00 | 68 | 1018.3 |
| 20260507075045 | 57 | 231 | 2.0 | 11.0 | 0.00 | 0.00 | 0.00 | 68 | 1018.2 |
| 20260507074545 | 57 | 242 | 2.0 | 11.0 | 0.00 | 0.00 | 0.00 | 67 | 1018.2 |
| 20260507074044 | 57 | 240 | 3.0 | 13.0 | 0.00 | 0.00 | 0.00 | 66 | 1018.2 |
| 20260507073544 | 57 | 244 | 5.0 | 11.0 | 0.00 | 0.00 | 0.00 | 67 | 1018.2 |
| 20260507073048 | 57 | 265 | 4.0 | 11.0 | 0.00 | 0.00 | 0.00 | 66 | 1018.2 |
| 20260507072543 | 57 | 248 | 5.0 | 12.0 | 0.00 | 0.00 | 0.00 | 67 | 1018.1 |
| 20260507072041 | 57 | 273 | 6.0 | 12.0 | 0.00 | 0.00 | 0.00 | 67 | 1018.1 |
| 20260507071540 | 57 | 256 | 3.0 | 11.0 | 0.00 | 0.00 | 0.00 | 69 | 1018.2 |
| 20260507071043 | 56 | 265 | 4.0 | 12.0 | 0.00 | 0.00 | 0.00 | 71 | 1018.1 |
| 20260507070537 | 57 | 245 | 6.0 | 12.0 | 0.00 | 0.00 | 0.00 | 69 | 1018.2 |
| 20260507070037 | 57 | 234 | 3.0 | 10.0 | 0.00 | 0.00 | 0.00 | 69 | 1018.2 |
| 20260507065538 | 57 | 248 | 3.0 | 7.0 | 0.00 | 0.00 | 0.00 | 68 | 1018.2 |
| 20260507065036 | 57 | 240 | 0.0 | 8.0 | 0.00 | 0.00 | 0.00 | 68 | 1018.3 |
| 20260507064536 | 57 | 243 | 2.0 | 5.0 | 0.00 | 0.00 | 0.00 | 68 | 1018.3 |
| 20260507064036 | 57 | 235 | 1.0 | 5.0 | 0.00 | 0.00 | 0.00 | 69 | 1018.3 |
| 20260507063536 | 57 | 248 | 1.0 | 5.0 | 0.00 | 0.00 | 0.00 | 68 | 1018.3 |
| 20260507063037 | 57 | 225 | 0.0 | 6.0 | 0.00 | 0.00 | 0.00 | 69 | 1018.3 |
| 20260507062536 | 58 | 225 | 1.0 | 7.0 | 0.00 | 0.00 | 0.00 | 68 | 1018.3 |
| 20260507062036 | 58 | 223 | 1.0 | 7.0 | 0.00 | 0.00 | 0.00 | 67 | 1018.3 |
| 20260507061535 | 58 | 325 | 0.0 | 5.0 | 0.00 | 0.00 | 0.00 | 67 | 1018.4 |
| 20260507061034 | 58 | 137 | 2.0 | 8.0 | 0.00 | 0.00 | 0.00 | 68 | 1018.3 |
| 20260507060534 | 58 | 236 | 2.0 | 8.0 | 0.00 | 0.00 | 0.00 | 68 | 1018.3 |
| 20260507060035 | 57 | 221 | 0.0 | 6.0 | 0.00 | 0.00 | 0.00 | 69 | 1018.3 |
| 20260507055535 | 57 | 213 | 0.0 | 9.0 | 0.00 | 0.00 | 0.00 | 69 | 1018.2 |
| 20260507055034 | 57 | 242 | 4.0 | 10.0 | 0.00 | 0.00 | 0.00 | 69 | 1018.3 |
| 20260507054538 | 58 | 252 | 6.0 | 11.0 | 0.00 | 0.00 | 0.00 | 68 | 1018.3 |
| 20260507054034 | 58 | 232 | 7.0 | 11.0 | 0.00 | 0.00 | 0.00 | 67 | 1018.4 |
| 20260507053534 | 59 | 225 | 2.0 | 9.0 | 0.00 | 0.00 | 0.00 | 66 | 1018.5 |
| 20260507053035 | 59 | 244 | 5.0 | 9.0 | 0.00 | 0.00 | 0.00 | 65 | 1018.5 |
| 20260507052534 | 59 | 223 | 3.0 | 10.0 | 0.00 | 0.00 | 0.00 | 64 | 1018.5 |
| 20260507052034 | 59 | 244 | 3.0 | 10.0 | 0.00 | 0.00 | 0.00 | 66 | 1018.6 |
| 20260507051534 | 60 | 229 | 2.0 | 9.0 | 0.00 | 0.00 | 0.00 | 64 | 1018.6 |
| 20260507051033 | 61 | 196 | 4.0 | 6.0 | 0.00 | 0.00 | 0.00 | 61 | 1018.5 |
| 20260507050533 | 61 | 251 | 2.0 | 7.0 | 0.00 | 0.00 | 0.00 | 57 | 1018.6 |
| 20260507050034 | 61 | 333 | 3.0 | 14.0 | 0.00 | 0.00 | 0.00 | 57 | 1018.6 |
| 20260507045533 | 61 | 13 | 2.0 | 14.0 | 0.00 | 0.00 | 0.00 | 58 | 1018.5 |
| 20260507045033 | 61 | 322 | 0.0 | 6.0 | 0.00 | 0.00 | 0.00 | 58 | 1018.6 |
| 20260507044532 | 61 | 75 | 1.0 | 6.0 | 0.00 | 0.00 | 0.00 | 60 | 1018.4 |